This demonstration page uses our WeatherBlox Daily Observations layout. Learn more.

Left ArrowRight Arrow

34.02893, -84.19858

Hourly Observations for April 3, 2019

Temp ( °F °C ) Dew Point ( °F °C ) Humidity (%) Winds ( mph kmh ) Pressure ( in mb ) Visibility ( mi km ) Precip ( " mm )
12:53 am 00:53 Clear 43 6.1 36 2.2 76 76 Calm 30.22 1023 10 16 0.00 0.00
1:53 am 01:53 Clear 42 5.6 37 2.8 82 82 Calm 30.23 1024 10 16 0.00 0.00
2:53 am 02:53 Clear 40 4.4 35 1.7 83 83 Calm 30.24 1024 10 16 0.00 0.00
3:53 am 03:53 Clear 38 3.3 35 1.7 89 89 Calm 30.24 1024 10 16 0.00 0.00
4:53 am 04:53 Clear 37 2.8 35 1.7 93 93 Calm 30.25 1024 10 16 0.00 0.00
5:53 am 05:53 Clear 37 2.8 35 1.7 93 93 Calm 30.28 1025 10 16 0.00 0.00
6:53 am 06:53 Clear 36 2.2 34 1.1 93 93 Calm 30.31 1026 10 16 0.00 0.00
7:53 am 07:53 Sunny 36 2.2 36 2.2 100 100 Calm 30.33 1027 10 16 0.00 0.00
8:53 am 08:53 Sunny 47 8.3 41 5 80 80 Calm 30.34 1027 10 16 0.00 0.00
9:53 am 09:53 Sunny 57 13.9 35 1.7 44 44 N 3 6 30.35 1028 10 16 0.00 0.00
10:53 am 10:53 Sunny 61 16.1 32 0 34 34 VRB 3 6 30.37 1029 10 16 0.00 0.00
11:53 am 11:53 Sunny 63 17.2 31 -0.6 30 30 Calm 30.38 1029 10 16 0.00 0.00
12:53 pm 12:53 Sunny 65 18.3 31 -0.6 28 28 NW 3 6 30.37 1028 10 16 0.00 0.00
1:53 pm 13:53 Sunny 67 19.4 31 -0.6 26 26 SSE 6 9 30.35 1028 10 16 0.00 0.00
2:53 pm 14:53 Sunny 69 20.6 29 -1.7 22 22 VRB 5 7 30.32 1027 10 16 0.00 0.00
3:53 pm 15:53 Sunny 69 20.6 27 -2.8 21 21 Calm 30.30 1026 10 16 0.00 0.00
4:53 pm 16:53 Sunny 71 21.7 29 -1.7 21 21 VRB 3 6 30.28 1026 10 16 0.00 0.00
5:53 pm 17:53 Sunny 70 21.1 29 -1.7 22 22 VRB 6 9 30.27 1025 10 16 0.00 0.00
6:53 pm 18:53 Sunny 69 20.6 28 -2.2 22 22 SSE 5 7 30.27 1025 10 16 0.00 0.00
7:53 pm 19:53 Sunny 66 18.9 29 -1.7 25 25 S 5 7 30.28 1025 10 16 0.00 0.00
8:53 pm 20:53 Clear 59 15 32 0 36 36 Calm 30.28 1026 10 16 0.00 0.00
9:53 pm 21:53 Clear 60 15.6 31 -0.6 33 33 SSE 3 6 30.29 1026 10 16 0.00 0.00
10:53 pm 22:53 Clear 57 13.9 32 0 39 39 SE 5 7 30.30 1026 10 16 0.00 0.00
11:53 pm 23:53 Clear 58 14.4 31 -0.6 36 36 SSE 3 6 30.31 1026 10 16 0.00 0.00

Powered by AerisWeather